Time,TemperatureF,DewpointF,PressureIn,WindDirection,WindDirectionDegrees,WindSpeedMPH,WindSpeedGustMPH,Humidity,HourlyPrecipIn,Conditions,Clouds,dailyrainin,SoftwareType,DateUTC
2013-08-29 00:18:00,73.0,71.0,-100.00,SSW,196,2.0,4.0,94,0.00,,,0.84,,2013-08-29 04:18:00,
2013-08-29 00:28:00,73.0,71.0,-100.00,SSW,193,1.0,4.0,94,0.00,,,0.84,,2013-08-29 04:28:00,
2013-08-29 00:30:00,72.0,70.0,-100.00,WNW,296,0.0,2.0,94,0.00,,,0.84,,2013-08-29 04:30:00,
2013-08-29 00:37:00,73.0,71.0,-100.00,SSW,193,1.0,4.0,94,0.00,,,0.84,,2013-08-29 04:37:00,
2013-08-29 00:54:00,72.0,71.0,-100.00,NW,304,0.0,2.0,94,0.00,,,0.84,,2013-08-29 04:54:00,
2013-08-29 01:14:00,72.0,70.0,-100.00,WNW,296,0.0,2.0,94,0.00,,,0.84,,2013-08-29 05:14:00,
2013-08-29 01:23:00,72.0,70.0,-100.00,WNW,296,0.0,2.0,94,0.00,,,0.84,,2013-08-29 05:23:00,
2013-08-29 01:52:00,71.0,70.0,-100.00,NNW,335,0.0,2.0,94,0.00,,,0.84,,2013-08-29 05:52:00,
2013-08-29 02:12:00,71.0,69.0,-100.00,WNW,292,0.0,2.0,94,0.00,,,0.84,,2013-08-29 06:12:00,
2013-08-29 02:22:00,71.0,69.0,-100.00,WNW,284,0.0,2.0,95,0.00,,,0.84,,2013-08-29 06:22:00,
2013-08-29 02:32:00,71.0,69.0,-100.00,WNW,284,0.0,2.0,95,0.00,,,0.84,,2013-08-29 06:32:00,
2013-08-29 02:51:00,70.0,69.0,-100.00,NNE,13,2.0,5.0,95,0.00,,,0.84,,2013-08-29 06:51:00,
2013-08-29 02:52:00,71.0,69.0,-100.00,North,4,1.0,3.0,95,0.00,,,0.84,,2013-08-29 06:52:00,
2013-08-29 03:12:00,70.0,69.0,-100.00,SW,232,2.0,4.0,95,0.00,,,0.84,,2013-08-29 07:12:00,
2013-08-29 03:22:00,70.0,69.0,-100.00,SW,232,2.0,4.0,95,0.00,,,0.84,,2013-08-29 07:22:00,
2013-08-29 03:42:00,70.0,69.0,-100.00,NNE,13,2.0,5.0,95,0.00,,,0.84,,2013-08-29 07:42:00,
2013-08-29 04:12:00,70.0,69.0,-100.00,WSW,241,1.0,3.0,95,0.00,,,0.84,,2013-08-29 08:12:00,
2013-08-29 04:22:00,70.0,69.0,-100.00,West,260,0.0,3.0,95,0.00,,,0.84,,2013-08-29 08:22:00,
2013-08-29 04:32:00,70.0,69.0,-100.00,West,260,0.0,3.0,95,0.00,,,0.84,,2013-08-29 08:32:00,
2013-08-29 04:52:00,70.0,69.0,-100.00,WNW,302,0.0,1.0,95,0.00,,,0.84,,2013-08-29 08:52:00,
2013-08-29 05:12:00,70.0,68.0,-100.00,North,1,0.0,2.0,95,0.00,,,0.84,,2013-08-29 09:12:00,
2013-08-29 05:22:00,70.0,68.0,-100.00,SSW,208,1.0,3.0,95,0.00,,,0.84,,2013-08-29 09:22:00,
2013-08-29 05:34:00,70.0,68.0,-100.00,SSW,208,1.0,3.0,95,0.00,,,0.84,,2013-08-29 09:34:00,
2013-08-29 05:55:00,69.0,68.0,-100.00,NNE,13,1.0,3.0,95,0.00,,,0.84,,2013-08-29 09:55:00,
2013-08-29 06:15:00,69.0,68.0,-100.00,NNE,31,2.0,4.0,95,0.00,,,0.84,,2013-08-29 10:15:00,
2013-08-29 06:24:00,69.0,68.0,-100.00,North,356,0.0,3.0,95,0.00,,,0.84,,2013-08-29 10:24:00,
2013-08-29 06:33:00,69.0,68.0,-100.00,North,356,0.0,3.0,95,0.00,,,0.84,,2013-08-29 10:33:00,
2013-08-29 06:53:00,69.0,68.0,-100.00,NNW,333,1.0,5.0,95,0.00,,,0.84,,2013-08-29 10:53:00,
2013-08-29 07:12:00,70.0,69.0,-100.00,NNW,339,2.0,6.0,95,0.00,,,0.84,,2013-08-29 11:12:00,
2013-08-29 07:22:00,70.0,68.0,-100.00,WSW,253,1.0,4.0,95,0.00,,,0.84,,2013-08-29 11:22:00,
2013-08-29 07:32:00,70.0,68.0,-100.00,WSW,253,1.0,4.0,95,0.00,,,0.84,,2013-08-29 11:32:00,
2013-08-29 07:52:00,70.0,68.0,-100.00,West,278,0.0,3.0,95,0.00,,,0.84,,2013-08-29 11:52:00,
2013-08-29 08:12:00,71.0,70.0,-100.00,North,11,3.0,6.0,95,0.00,,,0.85,,2013-08-29 12:12:00,
2013-08-29 08:22:00,72.0,70.0,-100.00,NE,35,6.0,9.0,93,0.00,,,0.85,,2013-08-29 12:22:00,
2013-08-29 08:32:00,72.0,70.0,-100.00,NE,35,6.0,9.0,93,0.00,,,0.85,,2013-08-29 12:32:00,
2013-08-29 08:52:00,72.0,70.0,-100.00,NNE,20,3.0,7.0,92,0.00,,,0.85,,2013-08-29 12:52:00,
2013-08-29 09:12:00,72.0,70.0,-100.00,SSE,157,1.0,5.0,93,0.00,,,0.76,,2013-08-29 13:12:00,
2013-08-29 09:22:00,73.0,71.0,-100.00,West,277,1.0,3.0,92,0.00,,,0.67,,2013-08-29 13:22:00,
2013-08-29 09:32:00,73.0,71.0,-100.00,West,277,1.0,3.0,92,0.00,,,0.67,,2013-08-29 13:32:00,
2013-08-29 09:52:00,74.0,71.0,-100.00,SW,236,1.0,2.0,92,0.00,,,0.56,,2013-08-29 13:52:00,
2013-08-29 10:11:00,76.0,71.0,-100.00,ESE,110,1.0,3.0,86,0.00,,,0.45,,2013-08-29 14:11:00,
2013-08-29 10:22:00,77.0,72.0,-100.00,SE,124,2.0,6.0,85,0.00,,,0.32,,2013-08-29 14:22:00,
2013-08-29 10:32:00,77.0,72.0,-100.00,SE,124,2.0,6.0,85,0.00,,,0.32,,2013-08-29 14:32:00,
2013-08-29 10:42:00,77.0,72.0,-100.00,SE,124,2.0,6.0,85,0.00,,,0.32,,2013-08-29 14:42:00,
2013-08-29 11:12:00,81.0,71.0,-100.00,NNE,28,4.0,10.0,71,0.00,,,0.09,,2013-08-29 15:12:00,
2013-08-29 11:22:00,80.0,71.0,-100.00,NE,37,6.0,11.0,72,0.00,,,0.09,,2013-08-29 15:22:00,
2013-08-29 11:33:00,80.0,71.0,-100.00,NE,37,6.0,11.0,72,0.00,,,0.09,,2013-08-29 15:33:00,
2013-08-29 11:53:00,80.0,70.0,-100.00,NNE,28,5.0,10.0,70,0.00,,,0.09,,2013-08-29 15:53:00,
2013-08-29 12:13:00,82.0,69.0,-100.00,SW,230,1.0,4.0,66,0.00,,,0.09,,2013-08-29 16:13:00,
2013-08-29 12:24:00,82.0,69.0,-100.00,SW,230,1.0,4.0,66,0.00,,,0.09,,2013-08-29 16:24:00,
2013-08-29 12:53:00,83.0,69.0,-100.00,NNE,32,6.0,13.0,64,0.00,,,0.09,,2013-08-29 16:53:00,
2013-08-29 13:13:00,83.0,69.0,-100.00,NNE,32,6.0,11.0,61,0.00,,,0.09,,2013-08-29 17:13:00,
2013-08-29 13:23:00,83.0,69.0,-100.00,NNE,32,6.0,11.0,61,0.00,,,0.09,,2013-08-29 17:23:00,
2013-08-29 13:52:00,85.0,68.0,-100.00,NE,37,7.0,14.0,56,0.00,,,0.09,,2013-08-29 17:52:00,
2013-08-29 14:12:00,86.0,68.0,-100.00,NNE,31,7.0,12.0,55,0.00,,,0.09,,2013-08-29 18:12:00,
2013-08-29 14:22:00,86.0,68.0,-100.00,NE,47,7.0,13.0,56,0.00,,,0.09,,2013-08-29 18:22:00,
2013-08-29 14:32:00,86.0,68.0,-100.00,NE,47,7.0,13.0,56,0.00,,,0.09,,2013-08-29 18:32:00,
2013-08-29 14:52:00,87.0,69.0,-100.00,NNE,23,7.0,13.0,55,0.00,,,0.09,,2013-08-29 18:52:00,
2013-08-29 15:11:00,86.0,69.0,-100.00,NE,40,8.0,12.0,56,0.00,,,0.09,,2013-08-29 19:11:00,
2013-08-29 15:22:00,88.0,68.0,-100.00,NE,34,7.0,13.0,52,0.00,,,0.09,,2013-08-29 19:22:00,
2013-08-29 15:32:00,88.0,68.0,-100.00,NE,34,7.0,13.0,52,0.00,,,0.09,,2013-08-29 19:32:00,
2013-08-29 15:52:00,87.0,69.0,-100.00,NNE,28,6.0,16.0,55,0.00,,,0.09,,2013-08-29 19:52:00,
2013-08-29 16:13:00,87.0,69.0,-100.00,NE,44,6.0,15.0,55,0.00,,,0.09,,2013-08-29 20:13:00,
2013-08-29 16:22:00,87.0,67.0,-100.00,NNE,32,7.0,13.0,53,0.00,,,0.09,,2013-08-29 20:22:00,
2013-08-29 16:32:00,87.0,67.0,-100.00,NNE,32,7.0,13.0,53,0.00,,,0.09,,2013-08-29 20:32:00,
2013-08-29 16:52:00,86.0,68.0,-100.00,NE,47,9.0,14.0,56,0.00,,,0.09,,2013-08-29 20:52:00,
2013-08-29 17:12:00,86.0,68.0,-100.00,NE,34,9.0,15.0,56,0.00,,,0.09,,2013-08-29 21:12:00,
2013-08-29 17:22:00,85.0,68.0,-100.00,NE,40,10.0,16.0,56,0.00,,,0.09,,2013-08-29 21:22:00,
2013-08-29 17:33:00,85.0,68.0,-100.00,NE,40,10.0,16.0,56,0.00,,,0.09,,2013-08-29 21:33:00,
2013-08-29 17:54:00,85.0,68.0,-100.00,NE,42,8.0,13.0,58,0.00,,,0.09,,2013-08-29 21:54:00,
2013-08-29 18:14:00,85.0,68.0,-100.00,NE,40,7.0,13.0,56,0.00,,,0.09,,2013-08-29 22:14:00,
2013-08-29 18:24:00,84.0,67.0,-100.00,NE,40,8.0,14.0,57,0.00,,,0.09,,2013-08-29 22:24:00,
2013-08-29 18:33:00,84.0,67.0,-100.00,NE,40,8.0,14.0,57,0.00,,,0.09,,2013-08-29 22:33:00,
2013-08-29 18:43:00,84.0,67.0,-100.00,NE,40,8.0,14.0,57,0.00,,,0.09,,2013-08-29 22:43:00,
2013-08-29 18:50:00,78.0,68.0,-100.00,NW,323,1.0,5.0,70,0.00,,,0.09,,2013-08-29 22:50:00,
2013-08-29 19:13:00,82.0,68.0,-100.00,NE,40,6.0,11.0,64,0.00,,,0.09,,2013-08-29 23:13:00,
2013-08-29 19:22:00,78.0,68.0,-100.00,NW,323,1.0,5.0,70,0.00,,,0.09,,2013-08-29 23:22:00,
2013-08-29 19:33:00,78.0,68.0,-100.00,NW,323,1.0,5.0,70,0.00,,,0.09,,2013-08-29 23:33:00,
2013-08-29 19:43:00,78.0,68.0,-100.00,NW,323,1.0,5.0,70,0.00,,,0.09,,2013-08-29 23:43:00,
2013-08-29 20:12:00,78.0,69.0,-100.00,NE,38,2.0,6.0,73,0.00,,,0.09,,2013-08-30 00:12:00,
2013-08-29 20:22:00,75.0,69.0,-100.00,NW,306,1.0,3.0,80,0.00,,,0.08,,2013-08-30 00:22:00,
2013-08-29 20:32:00,75.0,69.0,-100.00,NW,306,1.0,3.0,80,0.00,,,0.08,,2013-08-30 00:32:00,
2013-08-29 20:52:00,74.0,69.0,-100.00,NNW,333,1.0,4.0,83,0.00,,,0.08,,2013-08-30 00:52:00,
2013-08-29 21:12:00,73.0,68.0,-100.00,North,352,1.0,3.0,84,0.00,,,0.08,,2013-08-30 01:12:00,
2013-08-29 21:22:00,73.0,69.0,-100.00,NE,40,2.0,5.0,86,0.00,,,0.08,,2013-08-30 01:22:00,
2013-08-29 21:32:00,73.0,69.0,-100.00,NE,40,2.0,5.0,86,0.00,,,0.08,,2013-08-30 01:32:00,
2013-08-29 21:52:00,72.0,68.0,-100.00,NNW,337,1.0,3.0,89,0.00,,,0.06,,2013-08-30 01:52:00,
2013-08-29 22:11:00,72.0,68.0,-100.00,NNE,25,2.0,5.0,89,0.00,,,0.04,,2013-08-30 02:11:00,
2013-08-29 22:22:00,71.0,68.0,-100.00,NNE,17,1.0,4.0,90,0.00,,,0.02,,2013-08-30 02:22:00,
2013-08-29 22:32:00,71.0,68.0,-100.00,NNE,17,1.0,4.0,90,0.00,,,0.02,,2013-08-30 02:32:00,
2013-08-29 22:52:00,71.0,68.0,-100.00,WNW,301,0.0,2.0,91,0.00,,,0.02,,2013-08-30 02:52:00,
2013-08-29 23:12:00,70.0,68.0,-100.00,NNW,346,0.0,2.0,92,0.00,,,0.02,,2013-08-30 03:12:00,
2013-08-29 23:22:00,70.0,68.0,-100.00,NNE,31,2.0,5.0,92,0.00,,,0.01,,2013-08-30 03:22:00,
2013-08-29 23:34:00,70.0,68.0,-100.00,NNE,31,2.0,5.0,92,0.00,,,0.01,,2013-08-30 03:34:00,
2013-08-29 23:43:00,70.0,68.0,-100.00,NNE,31,2.0,5.0,92,0.00,,,0.01,,2013-08-30 03:43:00,
2013-08-29 23:55:00,70.0,67.0,-100.00,NE,44,2.0,5.0,92,0.00,,,0.01,,2013-08-30 03:55:00,